World > North America > United States > Utah

Emery, Utah Regional Weather

Lat: 38.93N, Lon: 111.25W
Wx Zone: UTZ012Web Search

Helpful Tip: You can add this page to Bookmarks by pressing the Ctrl key & d key at the same time. Mac users press command & d.

Feedback


°F Click to change Emery hourly weather to Imperial units.Click to change Emery hourly weather to Metric units. °C
Emery Weather Map
UTC Time: 4/16/2021, 07:14
Your Time:

Emery, UT Regional Weather

Expires:202104160800;;627578
ASUS45 KSLC 160710
RWRUT 

UTAH REGIONAL WEATHER ROUNDUP
NATIONAL WEATHER SERVICE SALT LAKE CITY UT
100 AM MDT FRI APR 16 2021


UTZ011>015-024>027-160800-

CENTRAL/NORTHEAST UTAH
  
CITY           SKY/WX    TMP DP  RH WIND       PRES   REMARKS
PROVO AIRPORT  CLOUDY    42  35  76 SW12      30.06S                  
MOAB/CANYONLAN MOCLDY    40  34  79 W3        30.01R                  
DELTA          CLOUDY    37  32  81 SE3       30.07S                  
MANTI            N/A     33  30  88 S9        30.06R WCI  26          
PRICE          MOCLDY    35  24  64 NE7       30.01S WCI  29          
RICHFIELD      PTCLDY    34  30  86 CALM      30.06S                  
ROOSEVELT      CLOUDY    36  32  87 E3        30.09R                  
DUCHESNE       CLOUDY    32  30  93 SE8       30.05R WCI  25          
VERNAL         CLOUDY    34  19  54 NE18      30.06S WCI  23          

$$


SKY/WX - Weather  TMP - Temperature  DP - Dew Point  RH - Relative Humidity
WIND - Wind Direction/Speed PRES - Barometric Pressure VSB - Visibility
WCI - Wind Chill Index E13G22 Wind - East Wind 13 mph/Gusts of 22 mph